Weather History for Howell, MI

Change the Weather History Date:

Monday, October 22, 2012

  Actual Average Record
Temperature  
Mean Temperature 58 °F -  
Max Temperature 72 °F 56 °F 73 °F (2007)
Min Temperature 43 °F 39 °F 24 °F (1997)
Degree Days  
Heating Degree Days 8    
Growing Degree Days 8 (Base 50)    
Moisture  
Dew Point 47 °F    
Average Humidity 71    
Maximum Humidity 90    
Minimum Humidity 52    
Precipitation  
Precipitation 0.00 in - - ()
Sea Level Pressure  
Sea Level Pressure 30.03 in    
Wind  
Wind Speed 4 mph (SSE)    
Max Wind Speed 12 mph    
Max Gust Speed -    
Visibility 9 miles    
Events Rain    
Averages and records for this station are not official NWS values.
T = Trace of Precipitation, MM = Missing Value Source: NWS Daily Summary

Daily Weather History Graph

Daily Weather History Graph

Search for Another Location

Airport:

Trip Planner

Search our weather history database for the weather conditions in past years. The results will help you decide how hot, cold, wet, or windy it might be!

Date:

Astronomy

Oct. 22, 2012 Rise Set
Actual Time 7:57 AM EDT 6:41 PM EDT
Civil Twilight 7:29 AM EDT 7:10 PM EDT
Nautical Twilight 6:56 AM EDT 7:43 PM EDT
Astronomical Twilight 6:23 AM EDT 8:16 PM EDT
Moon 2:57 PM EDT (10/22) 12:34 AM EDT (10/22)
Length of Visible Light 11h 41m
Length of Day
10h 43m
First Quarter, 56% of the Moon is Illuminated
Oct 22
First Quarter
Oct 29
Full
Nov 6
Last Quarter
Nov 13
New
Nov 20
First Quarter

Hourly Weather History & Observations

Time (EDT) Temp. Windchill Dew Point Humidity Pressure Visibility Wind Dir Wind Speed Gust Speed Precip Events Conditions
12:15 AM 48.9 °F - 37.6 °F 65% 30.08 in 10.0 mi South 3.5 mph - N/A   Clear
12:35 AM 46.4 °F 45.2 °F 38.1 °F 73% 30.08 in 10.0 mi South 3.5 mph - N/A   Clear
12:54 AM 45.5 °F 44.2 °F 37.6 °F 74% 30.07 in 10.0 mi SE 3.5 mph - N/A   Clear
1:15 AM 44.6 °F 42.2 °F 38.1 °F 78% 30.07 in 10.0 mi SE 4.6 mph - N/A   Clear
1:54 AM 44.2 °F 41.8 °F 38.1 °F 79% 30.07 in 10.0 mi SSE 4.6 mph - N/A   Clear
2:15 AM 45.1 °F 42.8 °F 38.7 °F 78% 30.07 in 10.0 mi SE 4.6 mph - N/A   Clear
2:35 AM 46.0 °F - 39.2 °F 77% 30.07 in 10.0 mi Calm Calm - N/A   Clear
2:55 AM 45.3 °F - 38.5 °F 77% 30.08 in 10.0 mi Calm Calm - N/A   Clear
3:15 AM 44.1 °F 42.5 °F 38.7 °F 81% 30.07 in 10.0 mi ESE 3.5 mph - N/A   Clear
3:35 AM 44.1 °F 41.5 °F 38.7 °F 81% 30.07 in 10.0 mi ESE 4.6 mph - N/A   Clear
3:55 AM 43.9 °F 42.3 °F 38.7 °F 82% 30.07 in 10.0 mi ESE 3.5 mph - N/A   Clear
4:14 AM 44.2 °F 42.7 °F 39.0 °F 82% 30.07 in 10.0 mi ESE 3.5 mph - N/A   Clear
4:55 AM 44.1 °F 41.5 °F 39.4 °F 84% 30.07 in 10.0 mi ESE 4.6 mph - N/A   Clear
5:14 AM 43.2 °F 40.5 °F 38.5 °F 84% 30.06 in 10.0 mi SE 4.6 mph - N/A   Clear
5:35 AM 43.5 °F 40.9 °F 39.4 °F 85% 30.06 in 10.0 mi SE 4.6 mph - N/A   Clear
5:54 AM 43.9 °F 40.5 °F 39.4 °F 84% 30.06 in 10.0 mi SE 5.8 mph - N/A   Clear
6:15 AM 44.2 °F 41.8 °F 40.1 °F 85% 30.06 in 10.0 mi SE 4.6 mph - N/A   Clear
6:35 AM 44.6 °F 42.2 °F 40.5 °F 85% 30.06 in 10.0 mi SE 4.6 mph - N/A   Clear
6:55 AM 44.1 °F 41.5 °F 39.6 °F 84% 30.07 in 7.0 mi SE 4.6 mph - N/A   Clear
7:15 AM 43.9 °F 40.5 °F 40.1 °F 87% 30.06 in 7.0 mi SE 5.8 mph - N/A   Clear
7:34 AM 44.6 °F 43.1 °F 40.6 °F 86% 30.06 in 7.0 mi SSE 3.5 mph - N/A   Clear
7:55 AM 44.8 °F 42.4 °F 41.0 °F 87% 30.06 in 7.0 mi ESE 4.6 mph - N/A   Clear
8:15 AM 45.1 °F 43.7 °F 41.0 °F 85% 30.06 in 7.0 mi SE 3.5 mph - N/A   Clear
8:34 AM 46.0 °F 43.9 °F 42.3 °F 87% 30.06 in 5.0 mi ESE 4.6 mph - N/A   Clear
8:55 AM 48.4 °F - 44.2 °F 86% 30.07 in 5.0 mi SE 3.5 mph - N/A   Clear
9:15 AM 51.6 °F - 44.8 °F 77% 30.07 in 7.0 mi SSE 3.5 mph - N/A   Clear
9:34 AM 52.2 °F - 44.8 °F 76% 30.07 in 7.0 mi Calm Calm - N/A   Clear
9:55 AM 53.2 °F - 45.0 °F 73% 30.07 in 10.0 mi South 3.5 mph - N/A   Clear
10:15 AM 56.3 °F - 45.7 °F 68% 30.07 in 10.0 mi SSE 3.5 mph - N/A   Clear
10:34 AM 58.5 °F - 46.2 °F 64% 30.07 in 10.0 mi SSE 3.5 mph - N/A   Clear
10:55 AM 61.0 °F - 46.8 °F 59% 30.07 in 10.0 mi South 5.8 mph - N/A   Clear
11:15 AM 61.9 °F - 47.1 °F 58% 30.07 in 10.0 mi SSE 3.5 mph - N/A   Clear
11:34 AM 64.2 °F - 48.0 °F 56% 30.07 in 10.0 mi Calm Calm - N/A   Clear
11:55 AM 65.8 °F - 48.4 °F 53% 30.05 in 10.0 mi ESE 3.5 mph - N/A   Clear
12:14 PM 66.2 °F - 48.9 °F 54% 30.05 in 10.0 mi SE 4.6 mph - N/A   Scattered Clouds
12:35 PM 68.0 °F - 50.0 °F 52% 30.04 in 10.0 mi ESE 4.6 mph - N/A   Mostly Cloudy
12:54 PM 70.0 °F - 51.4 °F 52% 30.05 in 10.0 mi SE 5.8 mph - N/A   Scattered Clouds
1:15 PM 71.4 °F - 52.7 °F 52% 30.03 in 10.0 mi SSE 6.9 mph - N/A   Scattered Clouds
1:35 PM 71.1 °F - 53.8 °F 54% 30.03 in 10.0 mi SSE 6.9 mph - N/A   Clear
1:54 PM 72.5 °F - 54.7 °F 53% 30.02 in 10.0 mi South 11.5 mph - N/A   Clear
2:15 PM 71.6 °F - 54.1 °F 54% 30.02 in 10.0 mi South 5.8 mph - N/A   Mostly Cloudy
2:34 PM 70.9 °F - 54.5 °F 56% 30.02 in 10.0 mi SSW 9.2 mph - N/A   Overcast
2:55 PM 70.5 °F - 54.7 °F 57% 30.02 in 10.0 mi SSE 9.2 mph - N/A   Overcast
3:15 PM 70.7 °F - 54.5 °F 56% 30.01 in 10.0 mi SSE 8.1 mph - N/A   Overcast
3:34 PM 70.7 °F - 54.1 °F 56% 30.00 in 10.0 mi SE 8.1 mph - N/A   Mostly Cloudy
4:15 PM 69.8 °F - 53.6 °F 56% 30.00 in 10.0 mi SSE 11.5 mph - N/A   Mostly Cloudy
4:34 PM 69.6 °F - 53.4 °F 56% 29.99 in 10.0 mi South 9.2 mph - N/A   Overcast
4:55 PM 68.7 °F - 53.6 °F 58% 29.99 in 10.0 mi South 9.2 mph - N/A   Overcast
5:14 PM 68.9 °F - 52.7 °F 56% 29.99 in 10.0 mi South 9.2 mph - N/A   Scattered Clouds
5:35 PM 68.0 °F - 52.7 °F 58% 29.97 in 10.0 mi SSE 8.1 mph - N/A   Clear
5:55 PM 67.8 °F - 52.0 °F 57% 29.98 in 10.0 mi South 8.1 mph - N/A   Scattered Clouds
6:14 PM 67.1 °F - 52.0 °F 58% 29.98 in 10.0 mi SSE 5.8 mph - N/A   Scattered Clouds
6:35 PM 66.6 °F - 52.2 °F 60% 29.98 in 10.0 mi SSE 5.8 mph - N/A   Clear
6:55 PM 65.7 °F - 52.2 °F 62% 29.98 in 10.0 mi SSE 5.8 mph - N/A   Scattered Clouds
7:14 PM 64.9 °F - 52.2 °F 63% 29.98 in 10.0 mi South 3.5 mph - N/A   Scattered Clouds
7:35 PM 65.1 °F - 52.3 °F 63% 29.99 in 10.0 mi South 3.5 mph - N/A   Scattered Clouds
7:55 PM 65.5 °F - 52.3 °F 62% 30.00 in 10.0 mi South 4.6 mph - N/A   Scattered Clouds
8:14 PM 65.3 °F - 52.7 °F 64% 30.00 in 10.0 mi South 4.6 mph - N/A   Mostly Cloudy
8:35 PM 65.7 °F - 52.7 °F 63% 30.00 in 10.0 mi South 4.6 mph - N/A   Overcast
8:55 PM 65.1 °F - 53.2 °F 65% 30.00 in 10.0 mi South 3.5 mph - N/A Rain Light Rain
9:14 PM 61.7 °F - 55.0 °F 79% 29.99 in 10.0 mi South 5.8 mph - N/A   Drizzle
9:35 PM 61.7 °F - 55.4 °F 80% 29.99 in 7.0 mi SSE 5.8 mph - N/A Rain Rain
9:55 PM 60.8 °F - 55.6 °F 83% 29.98 in 7.0 mi SE 4.6 mph - N/A Rain Light Rain
10:14 PM 60.4 °F - 55.4 °F 83% 29.98 in 7.0 mi SE 5.8 mph - N/A   Mostly Cloudy
10:35 PM 59.9 °F - 55.4 °F 85% 29.96 in 7.0 mi SE 3.5 mph - N/A   Scattered Clouds
10:54 PM 59.4 °F - 55.4 °F 87% 29.98 in 7.0 mi Calm Calm - N/A Rain Light Rain
11:15 PM 60.1 °F - 55.6 °F 85% 29.99 in 7.0 mi Calm Calm - N/A Rain Light Rain
11:35 PM 59.5 °F - 56.1 °F 88% 30.00 in 3.0 mi Calm Calm - N/A Rain Rain
11:54 PM 59.0 °F - 55.9 °F 90% 30.00 in 1.2 mi Calm Calm - N/A Rain Rain